Freeland, MI

1:05 PM EST on February 09, 2016 (GMT -0500)
MBS International

Weather History for KMBS - March, 2013

Change the Weather History Date:

Friday, March 1, 2013

  Actual Average Record
Temperature  
Mean Temperature 26 °F 28 °F  
Max Temperature 28 °F 36 °F 45 °F (1997)
Min Temperature 23 °F 21 °F 9 °F (2009)
Degree Days  
Heating Degree Days 40    
Month to date heating degree days  
Since 1 July heating degree days  
Cooling Degree Days 0    
Month to date cooling degree days  
Year to date cooling degree days  
Moisture  
Dew Point 17 °F    
Average Humidity 70    
Maximum Humidity 75    
Minimum Humidity 61    
Precipitation  
Precipitation 0.00 in 0.07 in 0.59 in (2007)
Month to date precipitation 0.07  
Year to date precipitation 3.39  
Snow  
Snow 0.00 in - - ()
Month to date snowfall  
Since 1 July snowfall  
Snow Depth -    
Sea Level Pressure  
Sea Level Pressure 30.11 in    
Wind  
Wind Speed 12 mph (NNE)    
Max Wind Speed 15 mph    
Max Gust Speed -    
Visibility 10 miles    
Events      
T = Trace of Precipitation, MM = Missing Value Source: NWS Daily Summary

Daily Weather History Graph

Daily Weather History Graph

Search for Another Location

Airport or City:

Trip Planner

Search our weather history database for the weather conditions in past years. The results will help you decide how hot, cold, wet, or windy it might be!

Date:

Astronomy

Mar. 01, 2013 Rise Set
Actual Time 7:12 AM EST 6:25 PM EST
Civil Twilight 6:43 AM EST 6:54 PM EST
Nautical Twilight 6:10 AM EST 7:27 PM EST
Astronomical Twilight 5:37 AM EST 8:00 PM EST
Moon 11:08 PM EST (3/1) 8:49 AM EST (3/1)
Length of Visible Light 12h 10m
Length of Day
11h 13m
Waning Gibbous, 83% of the Moon is Illuminated
Mar 1
Waning Gibbous
Mar 4
Last Quarter
Mar 11
New
Mar 19
First Quarter
Mar 27
Full

Hourly Weather History & Observations

Time (EST) Temp. Windchill Dew Point Humidity Pressure Visibility Wind Dir Wind Speed Gust Speed Precip Events Conditions
12:53 AM 28.4 °F 17.5 °F 19.4 °F 69% 30.01 in 10.0 mi NNE 13.8 mph - N/A   Overcast
1:53 AM 28.0 °F 20.0 °F 21.0 °F 75% 30.04 in 10.0 mi NNE 8.1 mph - N/A   Overcast
2:53 AM 27.0 °F 15.6 °F 19.0 °F 72% 30.05 in 10.0 mi NNE 13.8 mph - N/A   Overcast
3:53 AM 27.0 °F 15.2 °F 19.0 °F 72% 30.05 in 10.0 mi NNE 15.0 mph - N/A   Overcast
4:53 AM 25.0 °F 12.6 °F 17.1 °F 72% 30.06 in 10.0 mi NNE 15.0 mph - N/A   Overcast
5:53 AM 25.0 °F 14.8 °F 17.1 °F 72% 30.08 in 10.0 mi North 10.4 mph - N/A   Overcast
6:53 AM 24.1 °F 11.5 °F 16.0 °F 71% 30.09 in 10.0 mi NNE 15.0 mph - N/A   Overcast
7:53 AM 24.1 °F 12.0 °F 16.0 °F 71% 30.11 in 10.0 mi North 13.8 mph - N/A   Overcast
8:53 AM 23.0 °F 11.1 °F 16.0 °F 74% 30.13 in 10.0 mi North 12.7 mph - N/A   Overcast
9:53 AM 24.1 °F 12.0 °F 15.1 °F 69% 30.14 in 10.0 mi North 13.8 mph - N/A   Overcast
10:53 AM 24.1 °F 12.0 °F 16.0 °F 71% 30.15 in 10.0 mi NNE 13.8 mph - N/A   Overcast
11:53 AM 25.0 °F 13.6 °F 17.1 °F 72% 30.14 in 10.0 mi North 12.7 mph - N/A   Overcast
12:53 PM 26.6 °F 14.7 °F 17.6 °F 69% 30.11 in 10.0 mi North 15.0 mph - N/A   Overcast
1:42 PM 28.4 °F 18.0 °F 17.6 °F 64% 30.10 in 10.0 mi North 12.7 mph - N/A   Overcast
1:53 PM 28.0 °F 18.1 °F 18.0 °F 66% 30.12 in 10.0 mi NNE 11.5 mph - N/A   Overcast
2:53 PM 28.9 °F 20.4 °F 17.1 °F 61% 30.11 in 10.0 mi NNE 9.2 mph - N/A   Overcast
3:53 PM 28.0 °F 18.6 °F 18.0 °F 66% 30.11 in 10.0 mi NNE 10.4 mph - N/A   Overcast
5:53 PM 28.0 °F 19.3 °F 18.0 °F 66% 30.13 in 10.0 mi North 9.2 mph - N/A   Overcast
6:43 PM 26.6 °F 17.5 °F 19.4 °F 74% 30.11 in 10.0 mi NNE 9.2 mph - N/A   Overcast
6:53 PM 27.0 °F 18.7 °F 18.0 °F 69% 30.15 in 10.0 mi NE 8.1 mph - N/A   Overcast
7:53 PM 26.1 °F 15.6 °F 18.0 °F 71% 30.16 in 10.0 mi NNE 11.5 mph - N/A   Overcast
8:07 PM 26.6 °F 14.7 °F 17.6 °F 69% 30.13 in 10.0 mi NNE 15.0 mph - N/A   Overcast
8:37 PM 24.8 °F 14.0 °F 17.6 °F 74% 30.14 in 10.0 mi NNE 11.5 mph - N/A   Overcast
8:53 PM 25.0 °F 14.8 °F 17.1 °F 72% 30.17 in 10.0 mi NNE 10.4 mph - N/A   Overcast
9:53 PM 25.0 °F 16.3 °F 17.1 °F 72% 30.17 in 10.0 mi North 8.1 mph - N/A   Overcast
10:53 PM 25.0 °F 13.6 °F 15.1 °F 66% 30.16 in 10.0 mi NNW 12.7 mph - N/A   Overcast
11:53 PM 24.1 °F 11.5 °F 14.0 °F 65% 30.15 in 10.0 mi North 15.0 mph - N/A   Overcast